[Iaude] MPEC N103: 2024 NL2 [a=1.73,e=0.30,i=51.2,H=21.9]
    mpec at cfa.harvard.edu 
    mpec at cfa.harvard.edu
       
    Mon Jul  8 16:19:43 EDT 2024
    
    
  
M.P.E.C. 2024-N103                                 Issued 2024 July 8, 20:17 UT
     The Minor Planet Electronic Circulars contain information on unusual
         minor planets, routine data on comets and natural satellites,
         and occasional editorial announcements.  They are published
    on behalf of Division F of the International Astronomical Union by the
          Minor Planet Center, Smithsonian Astrophysical Observatory,
                          Cambridge, MA 02138, U.S.A.
			  
             Prepared using the Tamkin Foundation Computer Network
                              MPC at CFA.HARVARD.EDU
            URL https://www.minorplanetcenter.net/    ISSN 1523-6714
                                    2024 NL2                                    
Observations:
     K24N02L  C2024 06 08.50118021 09 52.386+24 18 11.94         22.80GVEN103F51
     K24N02L  C2024 06 08.50904721 09 52.513+24 17 46.54         22.26GVEN103F51
     K24N02L  C2024 06 08.51695821 09 52.656+24 17 20.65         22.93GVEN103F51
     K24N02L  C2024 06 08.52484521 09 52.782+24 16 55.10         21.95GVEN103F51
     K24N02L  C2024 06 10.49724021 10 34.520+22 22 53.10         21.98GVEN103F52
     K24N02L  C2024 06 10.52301321 10 34.830+22 21 18.95         22.21GVEN103F52
     K24N02L  C2024 06 10.53591921 10 34.986+22 20 31.64         22.86GVEN103F52
     K24N02L  C2024 06 28.53236321 06 52.097-09 31 13.04         20.54GVEN103F51
     K24N02L  C2024 06 28.54144321 06 51.507-09 32 39.79         21.18GVEN103F51
     K24N02L  C2024 06 28.55054221 06 50.907-09 34 06.82         20.71GVEN103F51
     K24N02L  C2024 07 02.56175621 02 18.795-20 50 44.45         20.35GVEN103F51
     K24N02L  C2024 07 02.57150121 02 17.868-20 52 26.94         20.18GVEN103F51
     K24N02L  C2024 07 02.58127521 02 16.931-20 54 09.81         21.12GVEN103F51
     K24N02L* C2024 07 06.47284120 55 53.518-32 19 48.46         20.92wXEN103F52
     K24N02L  C2024 07 06.49251520 55 50.938-32 23 14.42         20.44wXEN103F52
     K24N02L  C2024 07 06.50235120 55 49.668-32 24 57.48         20.52wXEN103F52
     K24N02L  C2024 07 06.54964020 55 43.469-32 33 10.77         20.73GVEN103F51
     K24N02L  C2024 07 06.55028220 55 43.378-32 33 17.55         20.74GVEN103F51
     K24N02L !C2024 07 07.15066420 54 31.518-34 17 18.56         21.3 GVEN103J04
     K24N02L !C2024 07 07.15634920 54 30.738-34 18 17.22         20.0 GVEN103J04
     K24N02L 3C2024 07 07.56370320 53 39.462-35 28 06.95         20.41GVEN103T14
     K24N02L 3C2024 07 07.56468220 53 39.325-35 28 16.98         20.54GVEN103T14
     K24N02L 3C2024 07 07.56566120 53 39.185-35 28 27.01         20.68GVEN103T14
     K24N02L KC2024 07 08.60049420 51 23.054-38 22 39.83         21.1 GVEN103474
     K24N02L KC2024 07 08.60450720 51 22.438-38 23 19.97         20.1 GVEN103474
     K24N02L KC2024 07 08.60851720 51 21.845-38 23 59.75         20.2 GVEN103474
Observer details:
474 Mount John Observatory, Lake Tekapo.  Observers A. C. Gilmore, P. M.
    Kilmartin.  Measurer P. M. Kilmartin.  0.6-m f/6.3 Reflector + CCD.
F51 Pan-STARRS 1, Haleakala.  Observers J. Herman, T. Lowe, P. Minguez, A.
    Schultz, I. Smith.  Measurers K. Chambers, T. de Boer, J. Fairlamb, H.
    Gao, M. Huber, C.-C. Lin, E. Magnier, Y. Ramanjooloo, R. Wainscoat, R.
    Weryk.  1.8-m Ritchey-Chretien + CCD.
F52 Pan-STARRS 2, Haleakala.  Observers J. Herman, T. Lowe, P. Minguez, A.
    Schultz, I. Smith.  Measurers K. Chambers, T. de Boer, J. Fairlamb, H.
    Gao, M. Huber, C.-C. Lin, E. Magnier, Y. Ramanjooloo, R. Wainscoat, R.
    Weryk.  1.8-m Ritchey-Chretien + CCD.
J04 ESA Optical Ground Station, Tenerife.  Observers D. Abreu, M. Micheli, F.
    Ocana, L. Conversi.  Measurers R. Kresken, M. Micheli, F. Ocana, A.
    Knofel, M. Busch.  1.0-m f/4.4 reflector + CCD.
T14 Canada-France-Hawaii Telescope, Maunakea.  Observers R. Wainscoat, H.
    Januszewski, H. Flewelling.  Measurers R. Weryk, R. Wainscoat.  3.6-m
    f/4.1 reflector + CCD.
Orbital elements:
2024 NL2                                                 Earth MOID = 0.2442 AU
Epoch 2024 Mar. 31.0 TT = JDT 2460400.5                 Veres                   
M 338.20478              (2000.0)            P               Q                  
n   0.43171896     Peri.  145.99432     -0.09587854     +0.65855856             
a   1.7338119      Node   106.78815     -0.99441526     -0.09659969             
e   0.2991247      Incl.   51.22624     +0.04410882     -0.74630364             
P   2.28           H   21.95          G   0.15           U   6                  
Residuals in seconds of arc
240608 F51  0.1-  0.1-    240628 F51  0.0   0.2+    240707 J04  0.1+  0.5-
240608 F51  0.1-  0.0     240702 F51  0.0   0.2+    240707 J04  0.1+  0.5-
240608 F51  0.0   0.1-    240702 F51  0.0   0.0     240707 T14  0.0   0.1-
240608 F51  0.1-  0.0     240702 F51  0.1-  0.3-    240707 T14  0.0   0.1-
240610 F52  0.1-  0.2+    240706 F52  0.0   0.1+    240707 T14  0.0   0.1-
240610 F52  0.1+  0.1+    240706 F52  0.2-  0.1+    240708 474  0.0   0.1-
240610 F52  0.3+  0.0     240706 F52  0.1+  0.1-    240708 474  0.2-  0.1-
240628 F51  0.1-  0.4-    240706 F51  0.1+  0.2+    240708 474  0.1-  0.2+
240628 F51  0.0   0.0     240706 F51  0.0   0.1+
Ephemeris:
2024 NL2                 a,e,i = 1.73, 0.30, 51                  q = 1.2152
Date    TT    R. A. (2000) Decl.     Delta      r    Elong.  Phase     V
2024 06 08    21 09 39.5 +24 45 12   0.4838  1.2254   104.0    53.5    22.8
...
2024 06 23    21 10 24.3 +03 40 00   0.3320  1.2479   127.8    40.0    21.6
...
2024 07 01    21 04 18.6 -16 19 41   0.2878  1.2647   145.6    27.0    21.0
...
2024 07 07    20 54 50.4 -33 50 43   0.2861  1.2792   153.5    20.8    20.8
2024 07 08    20 52 44.0 -36 41 45   0.2888  1.2817   153.6    20.7    20.8
2024 07 09    20 50 27.3 -39 28 45   0.2922  1.2843   153.2    20.9    20.8
...
2024 07 15    20 32 42.8 -54 06 52   0.3280  1.3008   145.8    26.1    21.3
...
2024 07 23    19 56 09.0 -67 11 43   0.4049  1.3249   132.8    34.2    22.0
...
2024 08 07    18 16 44.3 -77 17 30   0.5899  1.3754   115.5    41.7    23.1
M. P. C. Staff               (C) Copyright 2024 MPC           M.P.E.C. 2024-N103
    
    
More information about the Iaude
mailing list